Wind_Speed
16 15 14 13 12 11 9 9 10 11 10 8 7 6 4 3 2 3 3 4 5 5 5 10 13 8 7 8 8 9 7 5 6 5 4 4 5 4 4 3 3 2 2 2 1 1 1 1 1 1 0 1 1 2 2 2 3 3 4 5 6 7 8 9 10 11 11 11 11 11 11 12 12 12 12 11 10 10 11 12 13 15 17 18 17
14 14 13 12 12 11 9 8 9 10 9 7 6 4 2 1 2 3 4 4 5 6 6 10 13 9 9 12 10 7 6 7 7 6 3 4 5 5 5 4 4 4 4 3 3 3 3 3 2 2 2 2 2 2 2 2 3 4 5 6 7 8 9 10 11 11 11 11 11 11 11 11 12 11 10 10 10 11 12 13 14 16 18 19 19
13 13 12 12 11 10 8 7 8 7 6 4 3 2 1 1 1 1 2 2 3 6 4 6 11 13 12 12 9 6 9 9 7 7 4 4 5 6 7 7 6 5 5 4 4 4 4 4 3 4 4 4 3 3 2 2 3 4 5 7 8 9 10 11 11 10 10 10 9 9 9 9 10 9 8 9 11 11 13 13 14 15 17 18 18
12 11 11 11 10 8 7 6 6 5 3 1 1 2 1 1 2 3 3 3 3 4 3 5 10 12 12 11 6 6 11 10 7 7 5 5 4 6 8 8 7 7 6 4 4 4 4 3 4 5 5 5 4 3 3 3 4 5 6 7 8 8 9 9 9 9 8 8 7 7 7 7 7 7 8 9 10 11 12 13 13 13 13 14 15
12 11 11 11 10 8 8 6 5 4 3 2 2 3 3 2 3 3 3 3 3 2 2 5 8 10 12 10 6 6 11 12 10 7 6 6 5 6 8 9 9 8 7 5 4 4 4 4 4 5 5 5 4 3 3 4 5 6 7 7 8 8 8 8 9 9 8 8 8 8 7 7 7 7 7 8 10 11 12 13 13 13 13 13 14
12 11 10 9 8 8 7 5 5 5 5 4 3 4 5 4 3 4 5 7 7 6 6 4 5 8 11 8 6 6 8 13 13 7 6 6 5 5 7 8 7 6 6 6 5 4 4 4 5 5 6 5 4 4 5 5 6 7 7 8 8 7 8 8 8 8 8 8 9 9 9 8 7 7 8 9 10 11 12 13 13 13 13 13 14
10 10 10 9 8 8 8 6 7 7 5 4 3 5 5 3 3 5 6 7 6 6 3 4 4 7 11 8 5 5 6 13 13 7 6 6 5 4 5 4 3 4 4 4 6 6 4 4 5 5 5 4 4 5 5 6 7 7 7 7 7 7 7 7 7 7 7 7 8 9 9 9 8 8 9 10 11 11 11 12 12 13 13 13 14
10 11 10 9 10 11 10 8 8 7 5 4 4 5 4 2 1 3 4 4 2 1 2 6 5 8 10 7 2 4 9 11 10 9 9 6 4 5 4 3 3 4 3 2 4 6 5 5 5 5 4 4 5 5 6 7 7 6 6 6 6 6 6 6 6 6 7 7 8 8 9 9 8 8 9 10 10 10 10 10 11 12 12 13 14
11 12 11 10 11 12 12 8 7 7 5 4 4 4 3 1 1 1 2 3 2 3 2 4 7 9 9 7 3 5 10 8 7 13 11 8 8 6 5 4 4 3 2 1 2 4 5 5 5 4 4 4 5 5 6 6 7 6 5 4 4 4 5 5 5 6 7 7 8 8 8 8 8 8 9 10 10 9 9 10 11 11 12 13 15
12 10 8 11 12 11 10 7 6 7 5 4 3 3 3 1 1 1 1 3 4 5 5 4 5 11 9 8 4 2 6 4 6 12 11 11 10 6 7 6 4 3 2 1 2 2 2 2 2 2 3 4 4 5 6 6 6 7 6 4 4 4 4 5 5 6 7 8 8 8 8 8 8 8 8 9 10 10 10 10 11 12 12 14 15
11 7 9 12 13 12 9 6 6 6 5 4 4 4 3 2 1 1 1 3 5 6 7 8 1 13 12 8 6 3 5 5 6 8 9 12 12 9 10 8 5 4 2 2 2 1 0 1 2 2 1 2 3 4 5 6 6 6 6 6 5 5 5 5 5 7 8 9 9 9 9 8 8 8 8 9 9 10 11 12 12 12 13 14 15
10 8 10 11 11 10 7 6 6 5 4 4 5 5 4 3 2 1 2 3 4 7 8 7 6 12 10 6 6 5 4 6 7 7 9 12 14 13 12 9 7 5 3 3 3 2 1 1 3 3 4 3 4 5 5 5 5 5 6 7 6 6 6 5 6 7 8 8 9 10 9 9 9 9 9 9 9 10 11 12 12 12 13 14 15
10 9 10 9 8 8 7 7 6 5 5 5 5 5 4 3 3 3 5 7 7 9 9 2 6 7 7 6 5 5 5 8 8 9 10 11 13 15 13 11 9 7 6 5 5 4 3 3 3 3 3 4 5 6 7 7 6 5 6 7 7 7 7 6 6 7 8 8 9 10 10 10 10 9 9 9 10 10 11 13 13 13 13 14 15
11 10 9 9 9 8 7 7 7 6 5 6 5 4 4 3 4 5 6 8 9 9 6 4 5 5 3 4 4 6 8 10 9 10 10 10 12 14 13 12 11 10 9 7 8 7 5 3 2 2 3 4 5 6 7 8 7 6 6 7 8 8 8 7 7 8 9 9 10 11 11 10 10 10 10 10 10 11 11 13 14 14 14 14 15
12 11 8 8 8 7 7 6 6 5 4 5 5 4 3 2 4 5 6 8 9 8 4 3 6 6 1 1 2 3 5 8 9 12 14 14 15 14 14 15 12 12 11 8 9 9 8 4 3 3 3 3 4 5 5 6 7 6 6 7 8 10 10 9 9 10 10 11 12 12 12 12 11 11 11 11 11 11 11 13 14 15 14 14 15
13 11 8 8 8 7 7 6 5 4 4 4 4 4 2 2 3 4 7 9 11 10 7 4 3 3 2 1 0 1 1 5 7 9 10 14 17 16 17 17 13 13 11 9 8 10 11 8 4 3 3 2 3 4 4 4 5 6 7 7 9 10 10 11 11 11 12 13 14 14 14 13 13 12 11 12 12 12 12 12 14 15 15 14 14
12 12 8 7 8 8 7 6 5 5 4 5 4 3 3 3 3 4 6 8 11 11 10 7 3 4 5 2 1 2 2 4 5 4 3 1 8 13 17 17 13 13 11 10 10 10 14 12 6 4 4 3 3 4 5 6 6 6 7 8 10 11 11 11 12 12 13 14 15 15 15 14 14 13 12 12 12 12 12 12 13 14 15 14 14
11 12 9 8 8 8 7 6 5 5 3 3 3 3 3 3 3 4 4 5 8 10 12 10 4 3 5 3 3 2 3 3 3 2 6 6 3 4 14 15 12 13 12 12 12 13 15 12 8 6 5 4 3 4 4 6 6 7 9 10 11 11 11 11 12 12 13 14 15 16 15 14 14 14 13 13 13 13 13 13 13 13 14 14 14
11 12 11 8 8 8 7 6 5 5 3 2 2 2 2 2 1 3 5 5 6 7 11 13 9 6 6 3 4 6 4 3 1 0 3 4 7 9 10 10 6 7 10 10 10 13 13 10 11 11 7 5 4 3 4 5 6 8 11 13 12 11 11 11 12 12 13 14 16 15 14 13 13 13 14 13 13 13 13 14 14 14 14 14 14
11 12 11 9 9 9 8 7 5 4 4 3 2 1 1 2 1 3 4 4 5 7 9 11 11 11 10 6 5 7 6 5 2 0 2 1 5 9 9 6 6 5 6 7 3 5 8 8 11 13 11 7 5 3 4 5 7 9 11 13 11 9 11 12 12 12 13 15 16 15 13 12 13 13 13 13 12 12 13 14 15 15 15 14 14
12 12 11 8 9 10 9 7 5 4 5 3 2 2 2 4 2 2 3 3 4 6 7 8 9 12 12 11 8 7 7 7 7 4 2 2 3 4 7 6 7 8 6 3 2 1 4 4 7 8 9 8 6 5 5 5 8 10 12 12 10 10 13 12 12 12 13 15 16 15 13 12 12 12 12 12 12 13 14 14 15 16 16 15 14
13 13 10 8 9 9 9 8 6 5 5 2 1 3 3 3 2 2 2 2 2 3 4 5 8 10 10 11 11 9 7 8 11 9 4 3 3 3 3 5 4 6 6 3 0 1 2 3 6 2 4 4 4 5 5 6 10 11 12 13 10 11 12 12 12 12 13 15 16 14 13 11 11 11 11 12 13 14 14 15 16 16 17 16 14
14 14 11 9 9 9 9 8 6 7 6 3 2 4 4 3 1 1 1 1 2 2 2 3 5 7 8 9 11 8 5 7 10 10 6 5 4 4 5 6 4 4 4 2 1 2 1 5 5 2 2 3 3 4 4 7 10 11 13 13 11 11 12 12 12 12 13 14 14 13 12 11 11 11 12 13 14 15 16 16 16 16 17 17 16
13 13 13 11 10 9 10 9 8 7 6 6 5 5 5 3 3 4 3 2 2 2 2 3 4 6 7 7 8 7 5 5 6 7 7 7 4 3 7 8 4 5 8 6 1 3 2 2 2 3 5 5 4 4 6 10 11 11 12 12 11 10 12 13 13 13 13 14 14 13 11 11 12 13 13 14 15 16 16 16 16 16 16 17 17
14 14 14 14 12 10 11 11 10 8 7 8 7 6 5 4 5 6 5 4 3 1 2 3 3 5 8 7 7 7 6 4 4 6 6 5 4 4 5 5 4 6 9 6 2 3 3 1 1 4 6 6 6 6 10 12 11 10 11 11 11 10 12 15 15 13 14 15 16 14 12 12 12 14 15 15 16 16 17 17 16 16 15 15 16
16 15 14 15 14 12 12 11 9 9 9 9 7 6 5 5 7 7 5 5 5 2 3 3 3 4 6 6 6 6 6 4 2 5 6 4 4 5 3 4 5 6 7 8 6 4 5 5 5 6 5 5 6 8 11 11 11 11 11 11 12 11 14 17 15 15 16 17 18 16 15 14 13 14 15 15 16 16 17 17 17 16 15 14 15
16 15 14 14 14 13 13 12 10 11 10 9 8 7 6 7 8 6 5 6 6 4 4 4 4 5 5 5 5 4 5 4 3 4 5 3 3 2 2 3 3 4 6 7 6 5 7 8 5 4 3 6 9 10 11 11 11 11 10 11 11 11 15 17 17 17 18 17 17 18 18 17 14 14 14 14 15 15 16 17 17 17 16 15 14
15 15 16 15 15 14 14 14 12 12 11 10 9 8 7 8 9 8 6 5 5 5 6 6 5 5 5 5 5 6 6 5 6 6 4 3 1 1 3 1 1 1 4 4 4 4 6 8 5 3 3 8 11 12 10 11 11 11 11 12 11 12 16 19 18 18 19 19 19 19 19 19 16 14 14 14 14 14 15 17 17 18 17 16 14
14 15 16 15 15 15 14 14 13 12 12 11 10 9 9 9 9 9 7 5 6 7 7 7 6 7 6 4 5 6 6 6 6 6 4 2 1 3 5 4 2 2 0 2 3 3 5 8 7 5 6 9 12 11 11 12 12 11 11 13 13 13 16 19 18 19 21 21 19 18 18 18 18 15 14 15 13 13 15 15 17 18 18 17 15
15 14 15 14 13 14 14 14 13 12 12 11 10 11 11 10 10 9 7 6 8 8 8 8 8 7 6 5 6 6 5 4 4 4 4 5 3 3 4 4 3 3 3 2 2 3 5 8 9 9 10 12 11 10 12 13 13 11 11 12 14 14 16 18 18 20 21 19 19 20 19 18 17 16 15 16 14 14 15 15 16 17 17 17 16
16 15 14 13 13 13 13 13 13 12 11 11 11 11 12 12 11 10 8 8 9 9 9 9 8 7 6 6 7 7 6 5 4 3 5 6 6 5 5 6 6 5 6 4 2 3 6 9 12 12 12 12 12 11 12 13 12 13 13 13 14 15 16 17 19 19 18 19 20 20 19 18 17 17 17 17 17 16 16 17 17 17 17 17 17
16 16 16 15 14 14 13 13 13 12 12 12 12 12 12 12 11 11 10 9 10 10 9 8 7 6 7 8 8 7 6 6 6 6 6 6 7 7 8 7 6 6 6 6 5 7 9 10 12 13 12 11 11 10 12 13 12 13 14 14 15 16 15 16 18 18 17 18 20 19 19 20 18 17 18 19 19 19 19 19 19 18 18 17 17
16 17 16 16 16 16 15 14 14 13 12 13 13 12 13 13 12 11 10 10 11 11 10 8 6 7 8 9 8 8 7 8 8 8 8 6 8 9 9 7 6 6 6 6 7 8 10 10 10 12 11 10 11 12 13 13 11 12 13 13 14 15 14 14 16 15 15 17 19 20 20 19 18 19 20 21 22 21 21 21 21 20 20 18 17
15 15 16 15 15 16 15 15 14 14 14 14 14 13 13 14 13 11 11 11 11 11 11 9 8 8 9 10 9 8 9 9 9 8 7 6 8 9 8 6 6 7 6 7 7 7 9 11 12 12 11 11 13 13 12 12 12 12 13 14 15 14 14 14 13 12 13 16 18 19 20 20 19 21 23 25 24 22 20 21 21 22 22 21 19
15 15 15 14 14 15 15 15 15 15 15 15 15 14 13 13 13 12 12 12 12 12 11 10 10 9 9 9 9 8 9 9 11 10 8 6 7 6 5 5 6 7 8 8 7 7 9 11 13 13 13 13 14 14 14 15 15 15 16 17 16 14 15 17 16 13 13 15 17 18 21 22 21 21 24 23 21 19 19 21 22 23 23 23 21
16 16 16 14 13 15 16 16 16 15 15 15 15 15 14 13 14 13 12 12 12 12 11 10 9 9 9 10 10 9 10 11 11 10 8 7 8 7 7 7 6 7 7 7 8 9 9 11 13 14 14 15 16 17 17 17 17 16 17 19 18 18 19 19 18 16 15 16 17 20 22 20 19 21 21 19 20 21 20 22 24 23 22 23 22
17 17 17 16 15 16 16 16 16 16 16 15 14 16 15 14 15 14 13 13 12 12 11 11 11 11 11 12 11 10 10 11 10 9 8 9 9 9 9 9 8 8 7 7 8 10 11 14 16 16 15 15 17 17 17 17 19 19 20 20 20 19 17 15 14 14 14 17 20 21 21 19 18 21 21 21 24 23 22 24 25 23 22 23 23
19 18 18 18 18 18 18 17 17 18 17 16 16 16 16 15 14 13 13 13 13 13 13 12 11 11 11 12 12 12 11 11 10 10 10 10 10 10 10 9 9 9 9 9 10 11 13 14 15 14 14 15 16 17 16 17 20 22 22 19 16 13 13 14 17 17 17 19 21 21 21 20 19 20 22 24 25 23 23 25 23 21 22 24 23
20 20 19 19 19 19 18 18 18 18 17 16 16 16 16 15 14 13 13 13 12 13 12 11 10 11 12 12 12 12 12 12 12 11 12 12 11 11 11 9 9 8 8 9 9 9 11 12 12 13 15 16 16 17 17 18 19 19 15 13 14 14 17 20 21 21 20 21 23 24 23 23 23 23 25 25 24 23 23 22 20 19 20 21 19
22 22 21 20 19 19 18 17 17 19 18 16 17 17 16 15 15 14 13 13 13 12 12 13 13 13 13 13 13 13 13 13 13 13 13 13 13 12 10 9 9 8 8 8 8 9 10 12 13 14 16 17 18 18 19 18 16 14 11 12 16 19 22 23 22 21 21 21 24 27 28 29 28 27 26 24 23 22 21 19 18 18 18 17 15
23 22 21 20 19 19 18 16 15 17 17 15 14 16 16 15 15 14 13 13 14 13 13 14 14 13 12 12 13 13 13 12 12 13 14 15 15 15 13 12 12 11 11 11 11 10 11 12 14 16 17 18 18 18 18 16 15 15 14 16 20 21 23 24 23 22 21 21 23 28 32 31 29 27 25 23 23 22 21 21 19 17 18 18 17
20 20 20 19 18 17 17 16 16 15 15 14 13 13 15 16 16 15 14 13 12 13 13 13 12 12 12 12 12 12 13 13 14 14 15 16 18 18 17 15 14 14 13 13 13 12 12 13 15 16 15 17 19 19 18 18 19 18 18 20 22 22 21 21 23 24 22 21 24 30 32 28 26 25 24 23 23 23 24 24 23 20 19 19 18
15 16 17 17 17 15 14 15 15 15 16 16 14 13 15 17 17 16 15 15 13 12 12 12 12 13 12 12 12 12 12 14 15 15 15 15 18 21 20 17 16 15 14 14 15 15 14 14 16 16 16 18 21 21 20 21 21 19 20 22 21 19 16 15 17 22 24 24 26 29 29 25 24 24 23 22 22 22 22 22 20 19 19 19 17
12 13 14 15 15 14 13 13 12 14 16 16 14 13 14 16 17 17 16 15 14 12 11 11 12 13 13 14 14 12 10 10 10 10 12 13 15 19 20 17 15 13 12 13 14 14 15 16 18 20 21 21 22 22 22 21 20 19 21 21 18 16 15 14 16 21 25 25 24 26 27 24 23 22 22 21 20 20 20 19 19 21 21 18 16
9 11 12 13 14 14 13 13 12 14 16 16 16 17 16 15 17 18 18 18 16 13 12 10 9 9 11 14 15 12 9 9 9 9 11 12 12 15 18 17 14 13 12 12 13 14 16 18 20 22 22 23 24 24 22 19 18 20 20 18 16 15 16 18 19 23 25 22 21 22 23 22 21 20 20 20 19 19 19 20 22 22 20 17 16
6 8 8 9 11 11 11 11 12 14 16 16 17 19 18 17 17 17 19 19 17 13 12 9 6 6 6 8 9 8 4 4 6 7 9 9 8 9 12 14 14 14 13 12 11 13 15 17 19 21 21 21 23 24 23 20 20 19 17 16 16 17 19 20 21 23 22 19 17 18 19 21 21 19 19 22 22 22 23 22 22 20 18 17 17
7 7 7 7 9 10 10 10 11 13 15 15 16 19 20 20 18 18 20 21 17 12 10 8 8 8 7 7 7 6 4 4 5 6 8 9 9 8 8 10 11 10 8 7 9 11 14 13 14 15 16 16 18 20 20 19 18 17 16 15 16 18 19 19 21 22 20 16 15 16 17 21 20 19 22 25 25 25 25 22 20 18 18 18 19
12 10 8 8 9 10 11 11 11 12 13 15 16 18 19 19 18 17 18 20 19 14 10 8 9 10 11 10 9 8 8 8 8 9 10 10 10 9 8 8 7 6 6 7 8 9 9 7 7 10 11 12 13 14 14 15 15 15 15 16 17 16 16 18 19 19 17 16 16 15 15 18 19 20 25 27 25 25 25 21 18 18 19 19 19
16 14 12 11 11 11 12 12 12 13 13 14 15 16 18 18 15 12 13 16 17 14 10 8 9 9 9 10 10 10 10 11 12 12 11 10 10 9 8 7 6 6 7 8 7 6 5 5 7 9 10 10 11 13 14 14 14 14 14 15 15 13 13 14 14 15 18 18 15 12 13 17 19 22 25 25 25 24 21 18 18 21 22 21 18
13 13 12 12 12 12 13 13 13 14 15 16 15 15 16 16 14 13 13 15 15 12 10 9 9 9 8 10 11 11 11 12 12 12 11 9 8 7 7 6 6 7 7 8 8 9 11 12 13 14 14 13 13 13 13 12 12 12 12 12 12 12 13 12 12 15 17 14 11 12 16 18 19 21 22 23 24 22 19 18 21 24 24 20 17
11 11 12 13 12 12 12 12 13 14 16 17 17 16 16 15 15 15 14 13 12 10 9 8 7 7 8 10 11 11 11 11 11 10 9 7 6 6 6 6 6 7 9 10 12 13 14 15 15 15 14 12 11 12 12 11 11 11 10 11 11 12 13 13 14 14 11 8 12 17 18 18 19 20 19 17 14 16 20 22 25 26 23 19 19
Wind_Direction
145 143 141 140 136 133 138 148 151 144 137 137 133 124 108 79 32 346 307 279 271 254 225 189 170 145 147 145 141 162 184 201 192 169 124 70 54 91 113 119 123 125 113 105 95 90 127 140 112 111 146 324 333 326 328 339 343 345 344 339 333 330 326 320 315 311 310 309 309 310 309 308 308 310 312 312 309 305 302 300 299 296 292 289 286
143 140 140 139 134 132 139 147 148 142 133 127 123 113 87 12 342 320 282 286 273 237 205 195 190 176 158 153 150 149 170 199 191 171 138 76 60 78 101 105 106 104 95 93 92 93 96 102 98 91 95 73 56 42 30 26 13 1 352 344 337 332 326 318 313 311 312 313 313 311 310 311 311 312 316 317 317 315 312 309 305 300 295 295 295
144 137 137 137 134 136 147 154 150 148 141 125 114 110 52 7 298 238 246 266 228 210 190 184 187 184 175 166 163 148 156 179 183 167 141 94 66 70 91 93 93 90 86 92 91 96 98 100 109 105 100 92 84 78 60 39 20 5 354 345 339 333 326 319 318 319 318 316 315 312 312 312 313 317 323 320 319 318 315 312 307 302 300 300 301
147 140 142 145 144 152 170 174 161 154 153 129 122 181 154 93 176 184 170 159 178 187 171 177 183 181 178 175 182 172 158 166 190 179 129 102 85 73 83 83 85 82 77 86 89 95 101 107 116 113 107 101 95 81 52 29 15 6 358 350 346 340 335 335 339 339 337 338 336 332 328 323 324 327 324 318 319 324 325 326 323 320 318 315 313
149 145 147 147 151 171 188 187 174 160 138 152 171 177 176 155 168 185 190 216 216 215 256 221 197 175 170 170 181 191 171 172 189 173 122 109 105 86 83 83 83 78 71 74 83 93 99 114 120 115 111 102 86 58 36 24 17 11 6 3 1 359 358 5 10 7 7 9 7 3 359 351 343 335 330 328 333 342 344 344 344 341 337 331 325
150 154 157 153 155 166 172 170 169 159 141 156 175 167 180 203 227 260 275 283 265 256 272 233 180 165 169 166 166 182 180 180 180 160 125 116 111 99 90 89 80 62 53 57 70 84 96 112 115 114 108 93 71 46 32 27 23 20 19 17 17 20 24 26 26 24 21 19 18 13 8 5 356 347 342 343 349 354 357 358 357 354 349 341 334
158 160 166 165 163 159 154 151 152 158 167 172 155 146 163 203 248 272 285 297 276 255 247 172 135 138 160 168 185 199 177 171 175 170 152 133 125 135 109 83 64 55 58 60 66 73 84 102 109 112 104 81 60 45 37 33 29 27 26 26 31 34 35 34 30 28 23 20 21 16 10 8 2 355 351 353 1 4 6 8 7 4 356 348 341
159 159 165 165 166 163 157 154 153 160 175 172 139 134 148 159 232 277 289 308 295 255 164 165 144 124 150 169 186 184 164 156 172 178 164 159 167 167 153 103 90 88 86 90 75 66 68 91 105 106 92 70 57 49 44 37 32 29 26 28 35 39 35 31 26 20 16 16 18 16 12 9 4 360 357 0 6 9 12 14 13 10 2 357 351
159 164 167 165 164 161 160 161 166 165 158 156 138 114 129 155 203 228 318 330 314 310 298 212 184 153 158 169 116 139 158 150 177 182 171 176 181 180 182 149 122 115 94 136 114 72 68 85 95 96 79 62 59 51 45 41 36 26 18 16 16 21 23 19 14 9 8 9 13 14 11 8 4 0 359 1 4 8 9 10 11 8 3 1 359
163 164 155 161 165 158 161 167 171 164 141 146 133 90 109 140 248 190 344 326 318 329 344 327 209 183 175 167 147 140 169 157 174 181 181 183 184 194 195 164 128 119 110 187 160 91 69 53 48 83 73 52 50 48 41 36 36 28 15 4 351 347 352 356 359 358 359 1 6 8 7 4 0 356 356 357 358 359 358 360 4 3 360 359 1
155 143 126 142 155 153 157 161 160 151 127 132 122 86 98 101 118 204 306 312 323 333 337 347 127 174 177 159 138 129 173 167 155 173 192 198 198 204 200 179 151 136 138 201 190 157 64 329 302 279 293 347 0 8 23 21 20 22 17 11 1 348 340 339 345 349 354 358 359 1 1 358 354 350 348 348 350 349 349 352 355 358 357 354 359
138 131 130 133 145 156 164 153 143 135 117 121 117 99 85 62 63 20 336 334 340 349 338 346 100 143 160 150 140 146 181 186 177 196 210 211 207 202 201 194 175 159 167 199 198 211 250 270 265 267 269 283 325 324 327 351 1 7 10 10 7 3 354 347 346 349 355 358 358 357 357 353 348 345 340 337 339 341 341 344 349 353 354 351 357
134 132 140 146 152 161 165 147 131 129 124 121 121 109 86 45 23 0 341 341 343 355 357 34 109 111 137 150 174 185 204 206 214 229 214 205 201 194 192 195 190 174 177 206 209 219 244 248 248 258 264 269 299 307 298 301 321 349 0 1 360 358 356 356 354 353 353 353 353 353 353 350 345 342 337 331 330 332 334 337 342 348 351 349 352
144 136 141 155 160 158 155 143 135 140 134 128 130 109 85 50 12 357 347 346 342 346 5 78 44 3 160 158 201 218 225 220 234 240 212 200 204 199 192 193 198 187 178 199 213 226 241 242 263 278 283 288 296 296 287 285 293 321 346 352 350 343 340 344 348 348 345 342 340 340 343 343 341 340 335 330 326 326 329 332 336 342 347 347 348
152 145 146 153 153 150 149 141 141 149 135 121 128 119 91 49 22 2 353 356 354 359 13 38 11 344 255 185 210 223 243 238 245 241 228 226 224 214 190 182 193 189 177 187 208 226 232 230 262 268 279 298 300 289 284 288 286 300 326 339 342 336 329 329 334 339 338 334 331 330 333 334 333 333 332 329 325 323 326 329 331 336 341 345 345
163 154 156 158 157 160 160 148 140 152 143 130 134 131 103 40 30 7 359 2 2 10 21 9 353 24 68 210 248 54 266 268 275 258 241 231 228 217 182 175 191 189 182 192 210 229 227 227 246 231 234 260 271 267 275 292 284 299 321 326 332 331 327 326 328 332 333 330 328 326 328 330 329 327 327 326 323 322 323 325 328 332 337 341 344
163 158 167 173 170 175 176 164 153 152 141 132 134 120 87 40 22 13 6 6 2 6 21 18 353 41 64 112 61 45 225 292 316 317 0 119 223 217 181 176 191 192 197 204 209 226 224 225 233 220 221 237 269 276 277 287 280 300 325 326 328 329 326 329 331 332 331 329 329 328 328 330 329 326 325 323 321 319 319 320 323 329 334 337 342
159 163 181 185 176 180 181 178 171 158 139 119 110 90 61 34 2 359 1 5 4 7 18 17 12 44 49 75 59 7 270 331 15 347 2 33 29 183 169 174 187 196 209 212 213 218 219 232 241 227 232 251 282 307 297 295 288 304 325 328 326 327 328 333 336 337 335 333 333 332 331 332 332 329 326 324 321 319 317 317 318 323 331 334 340
169 177 193 191 182 182 179 179 175 157 155 157 111 85 54 30 332 349 2 10 12 12 13 10 14 23 17 27 29 14 343 325 28 80 348 351 11 54 121 160 178 193 197 196 208 212 213 246 258 244 253 267 268 303 315 318 324 323 328 329 324 324 332 337 337 338 336 337 337 336 335 335 333 331 329 327 325 322 318 316 316 317 324 331 337
180 187 197 196 191 189 181 177 174 167 179 183 154 137 165 157 160 349 359 26 27 17 11 7 11 13 10 15 20 15 7 349 339 169 128 300 340 34 66 95 89 96 156 175 219 224 211 244 265 254 255 261 250 270 302 314 333 330 327 328 323 324 337 336 334 336 336 337 339 339 338 336 334 332 331 331 329 327 323 320 318 316 319 326 333
184 189 198 200 194 190 188 180 170 187 200 183 172 212 190 158 149 333 347 42 28 6 5 7 8 5 6 9 1 355 6 16 11 1 75 83 308 351 34 55 77 80 101 153 303 296 191 247 298 265 240 247 246 244 272 309 335 333 330 331 324 329 338 331 328 335 337 339 342 342 343 340 338 336 335 335 332 329 327 323 321 318 317 320 326
183 187 198 203 196 190 192 188 177 191 198 170 186 206 183 162 175 309 351 35 10 347 354 354 356 358 0 2 353 347 1 14 10 5 21 43 341 319 28 52 47 51 72 98 12 94 171 301 332 316 210 246 256 251 278 323 335 333 333 331 329 337 337 327 327 335 337 342 346 348 352 351 346 343 338 336 333 329 328 324 321 319 318 318 321
182 186 193 202 206 197 196 199 191 192 191 181 207 205 191 191 221 255 270 333 332 326 332 335 344 347 349 355 355 357 16 25 17 15 23 31 13 333 359 21 14 9 10 347 33 81 279 302 318 312 267 288 285 264 298 328 328 329 330 326 332 343 339 332 333 336 336 341 346 350 357 355 349 344 337 335 333 330 329 326 322 320 318 318 319
182 188 191 197 208 201 197 205 204 203 205 204 207 204 202 212 209 204 207 242 283 290 298 318 333 334 333 342 358 4 9 21 26 27 27 32 42 18 9 12 358 348 346 334 44 75 40 8 335 303 289 285 272 261 306 324 322 328 331 327 334 340 338 338 336 332 333 337 338 341 348 348 343 339 336 334 333 332 331 330 327 323 319 317 318
185 192 192 193 205 204 197 205 207 212 221 218 214 209 210 214 204 200 197 210 220 233 285 297 314 329 328 324 334 344 343 359 30 28 18 13 25 29 27 18 351 349 1 0 342 313 322 357 279 307 307 289 278 289 314 323 323 334 341 334 328 326 333 338 335 328 330 332 330 327 331 338 338 338 339 338 338 340 340 337 334 330 324 318 317
190 196 196 196 207 206 203 210 211 214 221 219 215 215 214 205 201 204 203 210 208 207 273 275 285 315 323 319 321 331 338 349 357 359 352 340 11 25 17 13 1 351 2 11 6 330 329 328 288 293 327 324 319 325 329 331 330 334 342 337 327 321 327 333 331 327 326 329 327 320 318 324 330 337 343 344 344 347 348 346 342 338 332 323 319
198 200 199 201 208 206 206 211 211 214 219 221 219 218 216 204 205 214 212 215 217 217 247 259 270 291 303 307 308 310 324 332 311 325 342 338 5 22 351 9 18 351 348 360 6 351 350 355 318 277 343 2 350 341 337 339 336 329 328 330 329 327 329 330 327 325 324 326 324 317 312 312 318 331 341 343 345 348 350 349 348 343 338 331 325
204 203 200 204 209 207 207 210 211 213 220 228 228 224 223 215 217 229 226 224 236 239 249 253 250 265 284 295 299 293 293 299 295 293 303 320 325 307 314 323 149 342 336 342 353 337 339 358 351 294 329 349 341 333 330 330 327 323 323 327 328 327 331 332 328 325 325 324 321 313 307 306 308 318 332 337 339 345 348 351 352 348 343 337 332
205 202 202 207 212 210 208 211 212 213 219 225 222 219 226 224 224 235 236 230 241 252 260 258 250 257 267 281 295 291 283 294 297 280 270 286 281 290 302 282 202 172 208 310 318 301 323 344 344 321 315 325 328 326 327 329 324 321 326 331 330 326 329 331 328 328 329 329 327 317 309 308 305 307 320 328 331 338 342 347 352 350 347 343 338
202 200 203 206 210 209 206 209 213 215 220 220 216 215 223 230 229 235 243 235 238 255 265 264 260 257 260 277 295 286 272 291 310 287 284 295 281 288 299 279 260 228 195 217 283 286 311 327 328 322 315 320 328 324 323 333 335 330 331 333 333 330 327 324 323 328 332 335 335 328 323 320 311 305 312 319 322 329 335 339 344 346 346 346 343
200 201 205 205 207 209 205 208 213 217 218 216 219 220 224 234 231 231 242 240 240 256 265 264 260 257 268 286 289 283 274 280 295 288 295 302 286 278 290 285 284 270 230 209 228 280 295 307 316 323 323 325 331 323 318 328 334 330 329 331 332 330 323 320 326 334 336 334 333 331 332 331 322 312 313 316 316 321 327 331 334 338 340 343 345
199 201 205 203 205 210 208 210 214 219 218 214 220 224 227 237 236 231 240 244 245 256 262 260 255 254 275 288 279 274 277 274 274 274 276 295 294 278 277 278 274 266 249 225 228 269 291 302 309 320 329 329 328 325 321 322 323 325 326 326 326 326 324 325 331 334 330 329 333 337 338 336 329 321 318 318 316 318 322 325 327 329 332 336 340
202 201 203 204 208 212 212 213 217 220 220 217 221 226 227 235 239 234 238 247 252 255 257 257 255 255 270 284 274 265 273 273 273 274 264 276 293 278 266 268 271 268 260 247 246 271 297 310 313 319 329 331 324 323 320 316 320 328 328 323 321 322 325 328 328 329 330 331 337 341 341 340 334 326 323 321 319 318 319 321 323 323 324 327 330
207 202 202 207 212 213 211 212 217 222 224 222 223 227 229 234 238 235 237 247 253 251 252 255 257 257 265 278 275 266 275 275 272 275 268 275 295 282 260 261 273 276 276 271 263 268 292 308 317 323 329 328 320 319 319 314 313 317 315 316 317 315 319 324 323 331 339 339 339 341 343 342 336 330 328 324 321 321 322 323 323 321 321 320 320
204 203 202 206 211 213 211 211 216 222 227 225 223 225 230 234 238 238 237 244 252 254 255 259 260 258 262 272 273 269 275 274 271 271 264 270 295 288 264 263 268 272 278 277 271 268 283 301 314 321 326 327 322 323 323 317 313 309 306 311 314 309 312 318 318 318 326 334 339 337 335 334 332 331 331 330 330 332 331 330 328 324 321 318 315
203 205 203 206 214 215 212 212 215 219 224 226 224 224 228 234 239 241 238 241 251 257 259 266 267 264 265 268 266 265 266 268 274 274 262 265 281 278 272 275 267 264 271 271 272 273 275 287 303 313 318 319 319 324 326 323 320 316 311 312 313 309 310 317 320 320 320 327 332 332 332 333 332 333 336 337 337 335 330 328 328 325 321 318 315
208 210 204 205 213 216 215 217 216 216 218 221 223 225 228 234 238 240 242 243 250 255 261 269 267 261 265 268 268 269 268 269 277 279 271 273 277 271 270 277 273 265 268 275 278 277 273 278 291 306 314 316 319 323 325 323 321 317 316 317 317 315 319 330 337 336 332 330 332 336 339 340 334 331 331 329 329 327 323 323 325 324 321 320 316
204 208 206 207 213 218 223 225 223 223 222 220 223 225 227 231 236 240 242 242 245 252 258 265 261 255 261 266 269 271 271 272 274 276 276 275 274 270 269 278 283 270 265 279 283 279 280 282 289 302 313 318 319 318 319 321 319 317 318 323 329 335 342 347 346 344 342 339 338 340 340 338 332 326 322 320 322 322 320 322 325 325 324 324 321
202 206 208 211 214 220 228 230 229 230 229 226 226 227 226 229 233 238 239 238 242 249 252 255 254 254 259 263 266 268 269 268 267 268 270 270 273 274 268 271 282 277 273 284 287 286 294 299 303 308 310 311 311 311 316 322 323 323 328 339 347 347 343 342 342 343 342 340 339 337 334 331 328 323 321 321 325 325 325 326 328 329 331 332 328
205 209 212 214 215 220 227 232 233 232 230 231 232 230 229 230 233 238 243 246 247 248 248 251 253 252 256 261 265 267 267 266 265 265 266 267 272 275 267 258 262 265 271 282 287 291 297 302 304 304 304 305 306 309 314 321 329 339 346 348 345 341 339 338 337 338 337 335 335 332 329 328 326 326 328 332 336 337 334 333 332 332 337 339 337
208 213 217 218 217 219 224 231 237 233 230 236 239 235 233 232 233 236 242 246 247 248 253 257 258 257 258 264 267 266 266 268 267 266 266 264 263 263 261 254 251 256 263 271 277 282 286 290 294 295 298 300 303 308 312 317 326 330 327 330 335 336 336 332 327 329 333 332 329 325 324 326 327 329 335 340 344 345 339 334 330 327 329 328 328
205 209 214 217 216 218 221 226 229 225 225 233 241 244 242 239 237 235 235 239 242 248 256 260 262 264 265 269 271 268 265 265 263 262 264 262 257 254 255 256 257 263 269 272 273 275 279 286 290 293 294 294 297 302 304 306 313 316 316 322 328 328 330 327 322 325 330 331 326 321 323 330 332 333 338 341 343 344 341 339 335 328 326 325 323
199 202 205 206 207 213 215 214 214 215 221 229 231 238 245 242 238 237 236 236 238 245 255 260 265 269 268 267 268 269 270 270 267 266 270 270 261 252 251 257 265 270 276 278 277 275 276 278 282 286 287 288 292 295 295 300 308 311 314 319 321 322 327 324 316 318 326 330 326 320 323 335 336 332 334 339 341 343 345 348 346 340 338 337 333
200 204 206 205 208 216 217 213 213 217 224 229 226 233 243 239 234 237 238 234 233 237 247 255 261 268 272 270 267 266 272 275 271 268 274 278 271 259 254 257 265 270 274 277 279 280 278 277 277 281 282 283 286 290 294 301 308 312 316 320 320 319 321 316 307 310 322 331 328 317 320 333 337 332 334 342 345 345 346 344 340 338 340 342 339
198 202 209 215 219 220 218 222 231 232 231 232 230 232 238 237 233 235 236 233 231 234 241 249 263 278 286 283 273 266 264 262 258 262 270 276 280 272 262 257 261 267 268 272 280 285 285 282 279 281 286 287 284 287 293 296 300 308 314 316 316 316 314 312 309 311 322 332 329 316 316 328 336 336 338 344 346 343 339 334 331 336 343 346 345
198 196 199 209 216 214 208 216 230 231 229 232 232 230 233 238 239 236 232 230 232 238 237 241 260 285 300 292 271 258 247 244 250 262 271 278 288 285 271 265 270 273 271 277 289 293 294 292 285 285 293 294 289 290 293 290 290 298 303 304 309 311 310 311 311 314 323 334 332 322 317 322 332 337 336 338 337 333 331 331 334 341 345 344 343
220 223 218 214 216 214 211 216 221 220 220 227 232 233 237 241 242 241 237 231 232 237 231 232 254 270 282 290 281 274 277 275 272 274 276 280 287 289 282 275 277 280 281 292 307 307 307 307 299 297 303 304 300 298 296 290 287 291 294 298 305 308 309 311 313 317 325 333 330 323 313 315 329 337 331 331 331 329 331 333 336 339 339 336 335
238 243 242 234 226 222 221 223 222 217 217 222 227 231 236 241 243 247 243 230 226 229 231 240 256 263 270 277 282 287 287 285 287 286 282 283 282 281 279 274 271 275 282 292 302 308 315 327 331 328 326 321 314 306 302 300 299 300 303 306 310 314 313 314 316 320 326 329 328 324 313 315 329 332 327 329 330 330 334 339 339 341 341 336 331
246 247 247 244 239 235 230 225 224 224 223 223 223 226 233 239 240 238 227 212 209 213 218 229 242 250 263 272 275 283 287 287 289 288 284 282 278 276 278 274 271 280 289 290 286 280 286 303 319 327 327 321 315 312 313 316 315 317 318 317 321 326 323 319 319 319 323 327 330 327 319 319 325 327 326 328 329 331 338 343 343 344 345 342 339
246 240 238 238 239 242 242 238 235 234 231 228 225 224 229 230 218 201 197 197 195 196 200 210 226 241 262 277 282 287 288 287 286 286 284 281 277 279 285 286 287 293 294 291 283 274 277 285 294 302 308 310 311 314 319 323 324 326 327 325 329 331 326 321 315 315 321 330 333 326 321 321 323 326 327 326 327 332 340 343 342 344 349 352 349
231 223 223 225 228 236 242 241 238 235 232 229 226 224 223 216 200 189 192 196 192 192 201 211 228 248 262 275 283 286 286 284 283 284 286 285 286 295 300 298 294 290 288 292 297 298 297 298 302 310 318 321 316 316 322 326 327 331 335 334 334 333 329 323 317 317 320 324 329 328 322 319 320 323 325 326 324 329 336 339 340 345 352 355 347
Height
857 857 858 859 860 861 862 863 863 864 864 865 865 865 866 865 866 865 865 865 865 864 865 866 867 867 868 868 868 868 867 867 867 867 867 867 866 866 866 866 867 867 867 867 867 867 867 866 866 866 866 866 866 866 866 865 865 865 864 864 864 863 863 862 861 861 860 859 859 858 857 856 855 854 853 852 851 850 849 847 845 843 841 840 841
857 858 859 860 860 861 862 863 864 864 865 865 865 866 866 866 866 865 865 865 865 864 866 867 867 867 868 867 867 867 867 867 867 867 867 867 867 866 866 866 867 867 867 867 867 867 867 866 866 866 866 866 866 866 866 865 865 865 864 864 863 863 862 861 861 860 859 859 858 857 856 855 854 853 852 851 850 849 847 846 844 842 840 838 838
858 858 859 860 861 861 863 864 864 865 865 866 866 866 866 866 866 866 866 865 865 865 865 866 867 867 867 867 867 867 867 867 867 867 867 867 867 867 867 867 867 867 867 867 867 867 867 867 866 866 866 866 866 866 865 865 865 864 864 863 863 862 861 861 860 859 859 858 857 857 856 855 854 853 852 850 849 848 847 845 843 841 839 837 836
858 859 859 860 861 862 863 864 864 865 866 866 866 867 866 867 866 866 866 865 865 865 865 866 866 867 867 867 867 866 867 867 867 867 867 867 868 868 867 867 867 867 868 867 867 867 867 867 866 866 866 866 866 866 865 865 864 864 863 862 862 861 860 860 859 858 858 857 857 856 855 854 853 852 851 850 849 847 846 844 842 840 839 837 835
859 859 860 861 862 863 864 864 865 866 866 867 867 867 867 867 867 867 866 866 865 865 865 865 866 867 867 867 866 866 867 867 867 867 868 868 868 869 868 868 868 868 868 868 868 867 867 867 867 867 867 867 866 866 865 864 864 863 863 862 861 861 860 859 859 858 857 857 856 855 855 854 853 852 851 849 848 847 845 843 842 840 838 837 834
860 861 861 862 863 864 865 865 866 867 867 868 868 868 868 868 868 867 867 866 865 865 865 865 866 867 867 867 866 867 867 867 867 867 868 868 869 869 869 869 868 869 868 868 868 867 867 867 867 868 867 867 866 866 865 864 864 863 863 862 861 861 860 859 859 858 857 857 856 855 855 854 853 852 850 849 848 847 845 843 842 840 838 837 835
861 862 862 863 864 865 866 866 867 867 868 868 868 868 868 868 867 867 866 865 865 865 865 865 866 866 866 867 867 867 867 867 867 868 868 868 869 869 869 869 869 869 869 869 868 868 868 868 868 868 867 867 866 866 865 865 864 864 863 862 862 861 860 860 859 858 858 857 856 855 855 854 853 852 850 849 848 847 845 844 842 841 839 837 835
862 863 863 864 865 865 866 867 867 868 868 868 868 868 868 868 867 866 866 865 865 864 865 866 866 866 866 867 867 867 867 868 868 868 868 868 869 869 869 869 869 869 869 869 868 868 868 868 868 868 867 867 866 866 866 865 865 864 864 863 862 862 861 860 859 858 858 857 856 855 855 854 853 852 851 849 848 847 845 844 842 841 839 837 835
862 863 864 864 865 866 866 867 867 868 868 868 868 868 868 867 867 866 866 865 865 865 865 865 866 866 866 867 867 867 867 868 868 868 868 868 868 869 869 868 868 869 869 869 868 868 869 868 868 868 868 867 867 866 866 865 865 864 864 863 862 862 861 860 859 858 858 857 856 855 854 853 853 852 851 850 848 847 845 844 843 841 839 837 835
862 863 863 864 865 865 866 867 867 868 868 868 868 868 867 867 867 866 866 866 866 865 865 865 866 866 866 867 867 867 867 867 868 868 868 868 867 868 868 868 868 868 868 868 868 868 869 869 869 868 868 868 867 866 866 865 865 864 864 863 862 862 861 860 859 858 857 856 855 855 854 853 852 851 850 850 848 847 845 844 842 841 839 837 835
862 863 864 864 864 865 866 867 867 867 868 868 868 868 868 868 867 867 866 866 865 865 865 865 864 865 866 866 866 867 867 867 868 868 868 867 867 867 868 868 868 868 868 868 868 868 868 869 868 868 868 867 867 866 866 865 865 864 864 863 862 861 861 860 859 858 857 856 855 854 853 853 852 851 850 849 848 847 845 843 842 840 838 837 835
863 863 863 864 864 865 866 866 867 867 867 867 867 868 868 868 867 867 866 866 865 864 864 864 864 864 866 866 866 867 867 867 867 867 867 866 867 867 868 868 868 868 867 867 868 868 868 868 868 868 867 867 867 866 866 865 865 864 864 863 862 861 860 860 859 858 857 856 855 854 853 852 851 850 850 849 847 846 844 843 842 840 838 836 834
863 863 863 864 864 865 866 866 867 867 867 867 867 868 867 868 867 867 867 866 865 864 864 864 864 865 866 866 866 866 867 867 867 866 866 866 866 866 867 868 868 868 867 867 867 868 867 867 867 867 867 866 866 866 866 865 865 864 863 863 862 861 860 859 858 858 857 856 855 853 852 851 850 850 849 848 847 845 844 842 841 840 838 836 834
862 863 864 864 864 865 866 866 867 867 867 867 868 868 867 868 867 867 867 866 865 864 864 864 864 865 866 866 867 867 866 866 866 866 865 865 865 865 866 867 867 867 867 867 867 867 867 867 867 866 866 866 866 865 865 865 865 864 863 862 861 861 860 859 858 857 856 855 854 853 851 850 850 849 848 847 846 845 843 842 840 839 837 836 834
862 862 863 864 865 865 866 866 866 867 867 867 867 868 868 867 867 867 867 866 865 864 864 865 865 865 866 868 868 868 868 867 866 866 865 865 864 864 865 866 866 866 866 866 866 866 867 867 866 866 866 865 865 865 865 864 864 863 862 861 861 860 859 858 857 856 855 854 853 852 850 850 849 848 847 846 845 844 842 841 839 838 837 835 833
861 862 863 864 864 865 865 866 866 866 867 867 867 867 868 867 867 868 867 867 866 865 865 865 866 866 867 869 868 870 873 869 864 864 864 863 863 863 864 865 865 866 865 866 866 866 866 866 866 865 865 865 864 864 864 864 863 863 862 861 860 859 858 858 857 856 855 854 852 851 849 848 848 847 846 845 844 843 841 840 838 837 836 834 833
860 861 862 863 864 864 865 866 866 866 867 867 868 867 867 867 867 868 868 867 866 866 865 865 866 866 866 868 869 873 873 867 864 864 862 862 863 863 863 864 864 864 865 865 865 865 865 865 865 865 865 864 864 864 864 863 862 862 861 860 859 858 858 857 856 855 854 853 851 850 849 847 846 846 845 844 843 842 840 839 837 836 834 834 832
860 861 862 863 863 864 865 865 866 866 867 867 867 867 867 867 868 868 868 868 867 866 866 866 866 866 866 866 868 870 868 865 867 867 863 861 863 864 863 863 863 863 863 864 864 864 865 865 865 865 865 864 864 864 863 863 862 861 860 859 858 858 857 856 856 855 853 852 851 849 848 846 845 845 844 843 842 840 839 838 836 835 834 833 831
860 860 861 862 863 864 864 865 866 866 867 867 867 868 868 868 868 868 868 868 868 867 867 867 866 866 867 867 866 866 866 865 867 868 868 865 863 863 864 863 863 863 863 864 864 864 865 865 865 865 865 864 864 864 863 862 862 861 860 859 858 858 857 856 855 854 853 851 850 848 847 846 845 844 843 841 840 839 838 837 835 834 833 832 830
860 860 861 862 862 863 864 865 865 866 866 867 867 868 868 868 868 868 868 868 868 868 868 868 868 867 867 866 866 866 866 866 865 866 869 870 866 863 863 864 864 864 864 865 865 865 865 865 864 864 864 863 863 863 863 862 862 861 860 859 858 857 856 855 854 853 852 851 849 848 846 845 844 843 841 840 839 838 837 836 834 833 832 831 830
860 860 860 861 862 863 864 864 865 866 866 867 867 868 868 868 868 868 868 868 869 869 869 869 868 868 867 866 866 866 866 866 866 865 866 869 869 865 864 864 864 864 864 864 865 864 863 863 863 862 862 862 863 863 863 862 861 860 860 858 857 857 856 855 854 853 851 850 848 847 845 844 843 841 840 839 838 837 836 835 833 832 830 829 829
859 860 860 861 862 863 863 864 865 865 866 867 867 868 868 868 868 868 869 869 869 869 869 869 868 868 868 868 867 867 867 867 867 866 865 867 869 866 865 864 863 864 864 864 864 863 862 863 863 862 862 862 863 863 863 862 861 860 859 857 857 856 855 854 853 852 851 849 848 846 845 843 842 841 839 838 837 836 835 834 832 831 829 828 828
858 859 860 861 861 862 863 864 865 865 866 866 867 867 868 868 868 869 869 869 869 869 869 869 868 868 868 868 869 868 869 869 868 867 867 867 868 867 865 864 864 864 863 863 863 862 862 863 863 863 862 862 862 862 862 861 860 859 858 857 856 855 855 854 853 852 850 849 847 846 844 843 841 840 839 837 836 835 833 832 831 830 828 827 826
858 859 860 861 861 862 863 864 864 865 865 866 866 867 867 868 868 869 869 869 869 869 869 869 869 869 869 869 870 869 869 869 868 867 867 868 868 868 866 865 865 864 864 864 863 862 862 863 863 863 863 862 862 862 861 860 859 858 857 857 856 855 854 853 852 851 850 848 847 846 844 843 841 840 839 837 836 834 833 831 830 829 828 826 825
858 858 859 860 861 862 862 863 864 864 865 865 866 866 867 867 868 868 869 869 869 869 869 869 869 869 869 869 870 870 869 869 868 868 868 868 867 867 867 866 866 865 865 864 864 863 863 863 863 863 863 862 862 861 861 860 859 858 857 856 856 855 854 853 852 851 849 848 847 846 844 843 841 840 839 837 835 834 832 830 829 828 827 826 825
857 858 859 860 860 861 862 862 863 864 864 865 865 866 866 867 867 868 868 869 869 869 869 869 869 869 869 869 869 869 869 869 868 867 868 868 867 867 867 867 866 866 865 865 864 863 863 863 863 863 863 862 862 861 860 859 858 858 857 856 855 854 853 852 851 850 849 847 846 845 844 843 841 840 838 837 835 833 832 830 828 827 826 825 824
856 857 858 859 860 860 861 862 863 863 864 864 865 865 866 866 867 867 868 869 868 869 869 869 869 869 869 869 869 869 869 869 868 868 868 867 867 868 868 868 868 867 865 865 864 864 863 863 863 863 863 862 861 861 860 859 858 857 856 856 854 853 852 851 850 849 848 847 846 844 843 842 841 839 838 836 835 833 831 830 828 827 826 825 823
856 857 857 858 859 859 860 861 862 863 863 864 864 864 865 866 866 867 867 868 868 868 868 868 869 869 869 869 869 869 869 869 868 868 868 867 867 868 868 867 869 870 868 866 865 864 864 863 863 863 862 862 861 860 860 859 858 857 856 855 854 853 852 850 849 848 847 846 845 843 842 841 840 839 837 836 834 833 831 830 828 827 825 824 823
855 856 857 858 858 859 860 860 861 862 862 863 863 864 865 865 865 866 866 867 867 867 868 868 868 869 868 868 869 868 868 868 868 868 868 868 867 867 867 866 867 869 870 870 867 864 864 864 864 863 862 862 861 860 860 859 857 857 855 855 854 853 852 850 848 847 846 845 843 842 841 840 839 838 837 835 834 832 831 829 828 826 825 824 823
854 855 856 857 857 858 859 860 860 861 862 862 863 863 864 865 865 865 865 866 866 866 867 867 868 868 868 868 868 868 868 868 868 868 868 868 867 867 867 867 867 867 868 870 869 865 864 864 864 863 862 861 861 860 859 858 857 856 855 854 853 852 851 849 848 847 845 844 842 841 840 838 837 837 836 834 833 832 830 829 827 826 825 824 822
853 854 855 856 857 857 858 859 859 860 861 861 862 863 863 864 864 864 865 865 865 865 866 866 867 867 867 867 868 867 867 867 867 868 867 867 868 867 867 867 867 867 866 867 868 866 864 864 863 863 862 861 860 859 858 858 856 855 854 853 852 851 850 849 847 846 844 843 842 840 839 838 836 836 834 833 832 831 829 828 827 826 824 823 822
852 853 854 855 856 856 857 858 858 859 860 860 861 862 862 863 863 864 864 864 864 865 865 866 866 866 866 867 867 867 867 867 867 867 867 867 867 867 867 867 866 867 866 866 867 865 864 864 863 862 861 860 859 858 857 857 856 855 854 853 852 851 849 848 846 845 844 842 841 840 838 837 836 835 833 832 831 830 829 827 826 825 824 823 822
851 851 852 853 854 855 856 857 857 858 859 859 860 861 861 862 863 863 864 864 864 864 865 865 865 865 866 866 866 866 866 866 866 866 866 866 866 866 866 866 866 866 866 865 865 864 863 863 863 861 861 860 858 857 857 855 855 854 853 852 851 850 848 847 846 844 843 842 840 839 838 836 835 834 832 831 830 829 828 826 825 824 823 822 821
849 850 851 852 853 854 854 855 856 857 857 858 859 859 860 861 862 862 863 863 864 864 864 864 864 864 865 865 865 866 866 866 866 866 865 865 866 865 865 865 865 865 864 864 864 863 863 862 862 861 860 859 858 856 856 855 854 853 852 851 850 849 847 846 845 844 843 842 840 838 837 836 834 833 831 830 829 828 827 825 824 823 822 821 820
847 848 849 850 851 852 853 854 855 855 856 857 857 858 859 860 861 861 862 862 863 863 863 863 863 864 864 864 864 865 865 865 865 865 865 865 865 864 864 864 864 864 863 863 863 863 862 861 861 860 859 858 857 856 855 854 853 852 851 850 849 848 846 845 844 843 842 841 840 838 837 835 833 832 830 829 828 827 826 824 823 821 820 819 818
845 846 848 848 849 850 851 852 853 854 855 855 856 857 858 859 859 860 861 861 862 862 862 862 862 863 863 863 864 864 864 864 864 864 864 864 864 864 863 863 863 863 862 862 862 862 861 860 859 859 858 858 856 855 854 853 852 851 850 849 847 846 845 845 843 842 841 841 839 838 836 834 833 831 830 828 827 826 825 823 821 820 819 818 817
843 844 846 847 848 848 849 850 851 852 853 854 855 856 857 857 858 859 859 860 860 861 861 861 861 862 862 862 863 863 863 864 864 864 864 864 863 863 863 863 863 862 862 862 861 861 860 859 859 858 858 857 856 855 854 852 851 849 848 847 846 845 844 843 843 842 841 840 838 836 835 833 832 830 829 828 826 825 823 822 820 818 817 816 815
841 843 844 845 846 847 848 849 850 851 852 853 853 854 855 856 856 857 858 858 859 859 860 860 860 861 861 861 862 862 862 863 863 863 863 863 863 862 862 862 862 862 862 861 861 860 860 859 858 858 857 856 855 854 853 852 850 848 847 845 845 844 843 842 842 841 840 838 837 835 834 832 831 829 828 826 825 823 822 820 818 817 816 814 813
840 841 842 843 844 845 846 847 848 849 850 851 852 853 854 855 855 856 856 857 857 858 858 859 859 859 860 860 860 861 861 861 861 861 861 862 862 861 861 861 861 861 861 861 860 860 859 859 858 858 856 855 855 853 852 851 849 848 846 845 844 843 842 841 840 839 838 837 835 833 832 830 829 827 826 824 823 821 820 818 817 815 814 813 811
837 839 840 841 842 843 844 845 847 848 849 850 851 852 853 853 854 855 855 856 856 856 857 857 858 858 858 858 859 859 859 859 859 860 860 860 860 860 860 860 860 860 860 860 859 859 859 858 858 857 856 855 853 852 851 850 848 847 846 845 843 842 841 840 839 838 837 835 833 831 829 828 826 825 824 822 820 819 818 816 815 814 813 812 811
835 837 838 839 840 841 842 844 845 847 848 850 851 851 852 852 853 853 853 854 855 855 856 856 856 857 857 857 857 857 857 858 858 858 858 858 858 858 858 858 858 858 858 858 858 858 858 857 856 856 855 854 852 851 850 849 848 847 845 844 843 841 840 838 837 837 836 834 832 829 827 826 825 823 822 821 819 817 816 815 814 813 812 811 810
834 835 836 837 838 840 841 842 843 845 846 848 850 851 852 852 852 852 852 852 853 854 854 855 855 855 855 855 855 856 856 856 856 856 856 856 856 856 856 856 857 857 856 857 856 856 856 856 855 855 854 852 851 850 849 848 847 846 845 844 842 841 840 837 835 834 834 833 831 827 825 825 824 822 821 820 818 817 815 813 812 812 811 810 809
834 834 835 836 837 838 839 840 841 842 843 845 846 848 849 850 850 850 850 851 851 852 853 853 853 854 854 854 854 854 855 854 854 854 854 854 854 854 855 855 855 855 855 855 855 854 855 854 853 853 852 851 850 849 848 847 846 845 844 843 842 840 839 838 834 832 832 832 829 825 823 823 823 821 819 819 817 816 814 813 811 811 810 809 808
832 832 833 834 835 837 838 838 840 840 841 842 843 845 847 847 848 848 849 849 849 850 851 851 852 852 852 852 852 853 853 853 853 853 853 853 852 852 853 853 853 853 853 853 853 853 853 852 852 851 850 849 848 847 847 846 845 844 843 842 841 839 838 837 835 832 831 831 829 825 822 822 821 820 818 818 817 815 814 813 811 810 809 807 806
831 831 832 832 833 835 835 836 838 838 839 840 841 842 844 845 846 846 847 848 848 848 849 849 850 850 850 850 850 851 851 851 851 851 851 851 851 851 851 852 852 852 852 852 852 851 851 851 850 849 848 848 847 846 846 845 844 843 841 840 840 838 837 836 834 831 830 829 828 824 821 821 820 819 817 817 816 815 814 812 811 809 808 806 805
830 830 831 831 831 833 833 834 836 837 837 838 839 841 842 843 844 844 844 845 846 847 847 847 848 848 848 849 849 849 849 849 849 849 849 850 850 849 850 850 850 850 850 850 850 850 849 849 848 847 846 846 845 844 844 843 842 841 840 839 838 836 835 833 832 830 829 829 828 824 821 819 819 819 817 816 815 813 812 811 810 809 807 805 805
828 829 830 830 830 831 832 833 835 835 835 836 837 839 840 840 841 842 842 843 844 845 845 845 845 846 846 847 847 848 848 847 848 848 848 848 848 848 848 848 848 848 848 848 848 848 848 847 846 845 845 844 843 842 842 842 841 840 839 837 836 835 833 831 829 828 828 828 828 825 821 819 818 817 815 814 813 812 810 809 808 807 806 805 804
826 827 828 829 829 830 831 832 833 834 835 835 836 837 837 837 838 839 839 839 841 842 843 843 844 844 845 845 845 846 846 846 846 846 846 847 846 846 846 846 846 847 847 847 847 846 846 846 845 845 844 843 842 841 841 840 839 838 837 836 835 833 831 829 827 827 827 827 827 825 822 819 818 816 814 813 812 810 808 808 807 806 805 804 802
824 825 826 827 828 828 829 830 831 832 833 834 834 835 835 835 835 836 836 837 838 839 840 841 842 843 843 843 844 844 844 844 844 844 844 845 845 845 845 845 845 845 845 845 845 844 844 844 844 844 843 842 841 840 840 839 838 837 835 834 833 832 830 829 827 826 826 826 825 824 823 820 818 816 813 811 810 808 807 806 806 805 803 802 801
822 824 825 825 826 827 827 828 829 830 831 831 832 832 832 832 832 833 835 835 835 836 837 838 840 840 841 842 842 842 842 842 842 842 842 843 843 843 844 843 843 843 843 843 843 843 843 842 842 842 841 841 840 839 838 837 836 835 834 833 832 831 830 829 828 826 825 824 824 823 822 819 818 816 813 810 808 806 806 805 804 803 802 801 800
821 822 823 824 824 825 826 827 827 827 828 829 830 830 830 830 830 830 832 834 834 835 835 836 837 838 839 840 840 840 841 840 840 840 841 841 842 842 842 842 842 842 842 842 842 841 841 840 840 840 839 839 839 838 837 836 835 834 833 832 831 830 829 829 828 826 824 823 823 822 820 818 817 815 814 811 807 805 804 804 803 801 801 800 799